FW8904 Weather Reports


time (UTC)temp
F
wind
direction
speed
knots
gust
knots
rain 1hr
in
rain 24hr
in
rain mn
in
humidity
%
barometer
mb
20260507060843 51 259 0.0 0.0 0.00 0.33 0.01 98 1008.5
20260507055844 51 259 0.0 0.0 0.00 0.33 0.01 98 1008.6
20260507054841 52 259 0.0 0.0 0.00 0.33 0.01 98 1008.6
20260507053844 52 259 0.0 0.0 0.00 0.33 0.01 98 1008.6
20260507052841 52 259 0.0 0.0 0.00 0.33 0.01 98 1008.7
20260507052344 53 259 0.0 0.0 0.01 0.33 0.01 98 1008.9
20260507050838 53 259 0.0 0.0 0.01 0.33 0.01 98 1009.0
20260507045840 53 259 0.0 0.0 0.01 0.33 0.01 98 1009.0
20260507044837 53 259 0.0 0.0 0.01 0.33 0.01 98 1008.8
20260507043834 54 252 0.0 0.0 0.01 0.33 0.01 98 1008.8
20260507042834 55 300 0.0 0.0 0.03 0.33 0.01 98 1008.7
20260507042337 55 245 0.0 0.0 0.05 0.32 0.00 98 1008.9
20260507035835 55 257 0.0 0.0 0.06 0.32 0.32 98 1008.7
20260507034834 55 262 0.0 0.0 0.06 0.32 0.32 98 1008.9
20260507033834 56 251 0.0 0.0 0.07 0.32 0.32 98 1008.9
20260507032835 56 257 0.0 0.0 0.05 0.30 0.30 98 1009.2
20260507031830 57 269 0.0 0.0 0.02 0.27 0.27 97 1008.9
20260507030828 58 232 0.0 0.0 0.02 0.27 0.27 98 1008.8
20260507025829 58 261 0.0 0.0 0.01 0.26 0.26 99 1008.6
20260507024827 58 232 0.0 0.0 0.01 0.26 0.26 99 1008.5
20260507024327 58 262 0.0 0.0 0.00 0.25 0.25 99 1008.5
20260507022826 58 246 0.0 0.0 0.00 0.25 0.25 99 1008.4
20260507021827 58 255 0.0 0.0 0.00 0.25 0.25 99 1008.5
20260507020828 58 195 0.0 1.7 0.00 0.25 0.25 99 1008.2
20260507015824 58 212 0.0 5.2 0.00 0.25 0.25 99 1008.3
20260507014825 58 229 0.0 0.0 0.00 0.25 0.25 99 1008.5
20260507013824 58 211 0.0 0.0 0.00 0.25 0.25 99 1008.4
20260507013328 58 194 0.0 0.0 0.00 0.25 0.25 98 1008.3
20260507012326 58 163 0.0 0.0 0.00 0.25 0.25 98 1008.1
20260507010823 57 155 0.0 0.0 0.00 0.25 0.25 98 1008.2
20260507005824 57 221 0.0 0.0 0.00 0.25 0.25 98 1008.5
20260507004823 57 277 0.0 0.0 0.00 0.25 0.25 98 1008.6
20260507003825 57 228 0.0 0.0 0.00 0.25 0.25 98 1008.6
20260507002824 57 209 0.0 0.0 0.00 0.25 0.25 98 1008.6
20260507002325 57 347 0.0 4.3 0.00 0.25 0.25 98 1008.7
20260507001325 57 142 0.0 0.0 0.00 0.25 0.25 98 1008.5
20260506235824 58 142 0.0 0.0 0.01 0.25 0.25 98 1008.4
20260506234824 58 139 0.0 0.0 0.01 0.25 0.25 98 1008.4
20260506233824 58 210 0.0 4.3 0.01 0.25 0.25 98 1008.2
20260506233325 58 29 0.0 2.6 0.03 0.25 0.25 98 1008.2
20260506231825 58 141 0.0 0.0 0.03 0.25 0.25 98 1008.0
20260506230818 58 212 0.0 0.0 0.03 0.25 0.25 97 1008.1
20260506225817 58 160 0.0 0.0 0.02 0.24 0.24 97 1007.9
20260506224818 58 181 0.0 0.0 0.03 0.24 0.24 97 1007.8
20260506224321 58 352 0.0 2.6 0.03 0.24 0.24 97 1007.9
20260506223318 58 241 0.0 1.7 0.02 0.22 0.22 97 1007.8
20260506221817 58 151 0.0 0.0 0.03 0.22 0.22 97 1007.9
20260506220817 59 286 0.0 0.0 0.04 0.22 0.22 97 1007.9
20260506215818 58 121 0.0 0.0 0.05 0.22 0.22 97 1007.8
20260506214821 59 200 0.0 1.7 0.05 0.21 0.21 97 1007.9
20260506213812 59 149 0.0 0.0 0.05 0.21 0.21 97 1008.0
20260506212812 59 157 0.0 0.0 0.07 0.20 0.20 97 1008.2
20260506212310 59 175 0.0 0.0 0.07 0.19 0.19 97 1008.2
20260506210809 59 37 0.0 1.7 0.08 0.18 0.18 97 1008.3
20260506205810 59 158 0.0 1.7 0.08 0.17 0.17 96 1008.4
20260506204809 59 205 0.9 2.6 0.07 0.16 0.16 96 1008.5
20260506203809 59 149 0.9 2.6 0.07 0.16 0.16 96 1008.6
20260506202813 59 141 0.0 2.6 0.04 0.13 0.13 96 1008.7
20260506201810 59 173 0.0 3.5 0.04 0.12 0.12 96 1008.6
20260506200807 59 169 0.9 5.2 0.02 0.10 0.11 95 1008.7
20260506195808 59 218 0.0 0.0 0.02 0.09 0.09 95 1008.9
20260506194805 59 148 0.9 6.1 0.03 0.09 0.09 95 1009.0
20260506193805 59 141 0.0 0.9 0.04 0.09 0.09 95 1009.2
20260506192805 59 252 0.0 0.0 0.05 0.09 0.09 95 1009.1
20260506191806 59 202 0.0 2.6 0.06 0.08 0.08 95 1009.2
20260506190806 59 174 0.0 0.0 0.07 0.08 0.08 94 1009.6
20260506185805 59 158 0.0 0.0 0.06 0.07 0.07 93 1009.4
20260506185309 60 134 0.0 0.0 0.06 0.06 0.06 93 1009.1
20260506183805 60 120 0.0 0.0 0.05 0.05 0.05 91 1009.5
20260506182806 61 164 0.0 0.0 0.04 0.04 0.04 90 1009.7
20260506181805 62 155 0.0 0.0 0.02 0.02 0.02 89 1009.8
20260506180804 62 207 0.0 0.0 0.01 0.01 0.01 86 1009.9
20260506175803 64 166 0.0 0.0 0.01 0.01 0.01 85 1010.1
20260506174754 64 159 0.0 0.0 0.00 0.00 0.00 81 1010.0
20260506173755 66 158 0.0 0.0 0.00 0.00 0.00 79 1010.2
20260506172754 67 109 0.0 0.0 0.00 0.00 0.00 76 1010.5
20260506171755 68 236 0.0 1.7 0.00 0.00 0.00 74 1010.3
20260506170754 69 188 0.0 2.6 0.00 0.00 0.00 72 1010.1
20260506165755 70 149 0.0 0.0 0.00 0.00 0.00 70 1010.1
20260506164752 70 158 0.0 0.9 0.00 0.00 0.00 71 1010.1
20260506163753 70 146 0.0 5.2 0.00 0.00 0.00 70 1010.2
20260506162754 70 140 0.0 0.0 0.00 0.00 0.00 70 1010.2
20260506161753 69 185 0.0 0.0 0.00 0.00 0.00 71 1010.3
20260506160753 70 233 0.0 0.0 0.00 0.00 0.00 70 1010.6
20260506155753 70 184 0.0 0.0 0.00 0.00 0.00 70 1010.7
20260506154753 70 205 0.0 0.0 0.00 0.00 0.00 70 1010.7
20260506153753 70 226 0.0 3.5 0.00 0.00 0.00 69 1010.7
20260506152752 70 154 0.0 7.8 0.00 0.00 0.00 69 1010.9
20260506151752 70 258 0.0 0.0 0.00 0.00 0.00 71 1010.9
20260506150747 70 269 0.0 3.5 0.00 0.00 0.00 71 1011.0
20260506145748 70 238 0.0 5.2 0.00 0.00 0.00 70 1011.2
20260506144748 70 214 0.0 0.0 0.00 0.00 0.00 72 1011.1
20260506143746 68 262 0.0 5.2 0.00 0.00 0.00 73 1011.3
20260506142746 68 115 0.9 5.2 0.00 0.00 0.00 75 1011.2
20260506142247 68 103 0.0 6.1 0.00 0.00 0.00 75 1011.3
20260506140748 68 196 0.0 0.0 0.00 0.00 0.00 74 1011.4
20260506140248 68 208 0.0 0.0 0.00 0.00 0.00 76 1011.0
20260506134750 68 185 0.0 0.0 0.00 0.00 0.00 76 1011.1
20260506133741 67 229 0.0 0.9 0.00 0.00 0.00 78 1011.1
20260506132741 67 301 0.9 7.8 0.00 0.00 0.00 78 1011.3
20260506131740 67 180 0.0 0.0 0.00 0.00 0.00 79 1011.2
20260506130738 65 242 1.7 5.2 0.00 0.00 0.00 81 1011.6
20260506125738 65 172 0.9 4.3 0.00 0.00 0.00 82 1011.8
20260506124739 63 168 0.9 5.2 0.00 0.00 0.00 85 1011.7
20260506123738 62 174 0.0 0.0 0.00 0.00 0.00 85 1011.8
20260506122739 62 205 0.0 0.0 0.00 0.00 0.00 86 1011.8
20260506121737 62 193 0.0 0.0 0.00 0.00 0.00 87 1011.8
20260506121241 62 104 0.0 3.5 0.00 0.00 0.00 87 1011.9
20260506115738 62 158 0.0 3.5 0.00 0.00 0.00 87 1011.8
20260506112737 59 150 0.0 0.0 0.00 0.00 0.00 91 1012.0
20260506111735 58 162 0.0 3.5 0.00 0.00 0.00 91 1012.1
20260506110737 58 172 0.0 2.6 0.00 0.00 0.00 92 1012.2
20260506105735 58 135 0.0 0.0 0.00 0.00 0.00 93 1012.1
20260506104733 57 145 0.0 0.0 0.00 0.00 0.00 93 1012.1
20260506103732 57 148 0.0 0.0 0.00 0.00 0.00 93 1011.9
20260506102732 57 117 0.0 0.0 0.00 0.00 0.00 93 1011.8
20260506101731 57 141 0.0 0.0 0.00 0.00 0.00 92 1011.9
20260506100726 57 153 0.0 0.0 0.00 0.00 0.00 92 1011.9
20260506095726 57 155 0.0 0.0 0.00 0.00 0.00 92 1011.9
20260506094726 57 141 0.0 0.0 0.00 0.00 0.00 92 1011.9
20260506093727 57 143 0.0 0.0 0.00 0.00 0.00 91 1011.9
20260506092725 57 151 0.0 0.0 0.00 0.00 0.00 91 1011.8
20260506091726 57 153 0.0 0.0 0.00 0.00 0.00 91 1011.8
20260506090724 57 150 0.0 0.0 0.00 0.00 0.00 90 1012.0
20260506085721 58 141 0.0 0.0 0.00 0.00 0.00 90 1011.9
20260506084720 58 148 0.0 0.0 0.00 0.00 0.00 90 1012.0
20260506083719 58 115 0.0 0.0 0.00 0.00 0.00 90 1012.0
20260506082717 58 167 0.0 0.0 0.00 0.00 0.00 89 1012.1
20260506081715 58 150 0.0 0.0 0.00 0.00 0.00 89 1012.1
20260506080716 58 162 0.0 0.0 0.00 0.00 0.00 88 1012.2
20260506072717 59 166 0.0 0.0 0.00 0.00 0.00 87 1012.1
20260506070717 59 176 0.0 0.0 0.00 0.00 0.00 86 1012.0
20260506061716 60 245 0.0 0.0 0.00 0.00 0.00 84 1011.9